Crotone

Reggina-Crotone, la match analysis dell’incontro

Arriva finalmente a Reggio Calabria la vittoria in campionato, la prima da novembre in generale e la prima da ottobre (!) al Granillo. Arriva proprio al momento giusto perché l’avversario era il Crotone di Modesto,...

Reggina, hai fatto quel che dovevi fare

La Reggina ritrova il successo nel derby casalingo con il Crotone. Agli amaranto di mister Stellone era stata chiesta una prova d'orgoglio e così è avvenuto. Sicuramente non è stato un derby emozionante, considerata...

Reggina, vittoria doveva essere e vittoria è stata!

La Reggina torna alla vittoria dopo circa tre mesi facendo suo il derby contro il Crotone. È stata una partita lottata dove i pitagorici sono stati abili a mantenere spesso il pallino del gioco facendo...

CROTONE-REGGINA 1-1, Benali replica a Galabinov

Torna di scena allo Scida, Crotone-Reggina, il derby tutto calabrese che mancava da ben sette anni. Primo tempo che ha visto più pericoloso il Crotone, che con il giovane Mulattieri e le discese di...

È del Crotone la difesa più perforata di sempre in Serie A

Nel campionato di Serie A (la cui prima edizione prese il via nel 1929-30) di record (positivi, negativi ma anche bizzarri) c’è ne sono tantissimi e alcuni di essi resistono ormai da decenni. Un...
DataCasaRisultatiTrasfertaOra
2022-05-06 16:30:0006/05/220 - 1 16:30:0016:30
2022-04-30 16:30:0030/04/223 - 3 16:30:0016:30
2022-04-25 16:30:0025/04/223 - 1 16:30:0016:30
2022-04-18 16:30:0018/04/221 - 1 16:30:0016:30
2022-04-09 16:30:0009/04/221 - 2 16:30:0016:30
2022-04-05 16:30:0005/04/221 - 1 16:30:0016:30
2022-04-02 16:30:0002/04/221 - 1 16:30:0016:30
2022-03-19 16:30:0019/03/221 - 0 16:30:0016:30
2022-03-15 16:30:0015/03/222 - 0 16:30:0016:30
2022-03-12 16:30:0012/03/223 - 1 16:30:0016:30
2022-03-05 16:30:0005/03/220 - 0 16:30:0016:30
2022-03-01 16:30:0001/03/223 - 2 16:30:0016:30
2022-02-26 16:30:0026/02/222 - 1 16:30:0016:30
2022-02-22 16:30:0022/02/223 - 3 16:30:0016:30
2022-02-19 16:30:0019/02/223 - 0 16:30:0016:30
2022-02-15 16:30:0015/02/220 - 1 16:30:0016:30
2022-02-12 16:30:0012/02/221 - 0 16:30:0016:30
2022-02-05 16:30:0005/02/220 - 0 16:30:0016:30
2022-01-22 16:30:0022/01/221 - 1 16:30:0016:30
2022-01-15 16:30:0015/01/221 - 1 16:30:0016:30
2021-12-18 16:30:0018/12/214 - 1 16:30:0016:30
2021-12-11 16:30:0011/12/213 - 2 16:30:0016:30
2021-12-04 16:30:0004/12/211 - 2 16:30:0016:30
2021-11-30 16:30:0030/11/211 - 0 16:30:0016:30
2021-11-27 16:30:0027/11/210 - 1 16:30:0016:30
2021-11-20 16:30:0020/11/212 - 0 16:30:0016:30
2021-11-06 16:30:0006/11/211 - 1 16:30:0016:30
2021-11-01 16:30:0001/11/212 - 1 16:30:0016:30
2021-10-28 16:30:0028/10/210 - 2 16:30:0016:30
2021-10-23 16:30:0023/10/211 - 0 16:30:0016:30
2021-10-16 16:30:0016/10/212 - 1 16:30:0016:30
2021-10-02 14:00:0002/10/212 - 2 14:00:0014:00
2021-09-25 16:30:0025/09/211 - 0 16:30:0016:30
2021-09-21 16:30:0021/09/210 - 3 16:30:0016:30
2021-09-18 16:30:0018/09/212 - 2 16:30:0016:30
2021-09-11 16:30:0011/09/211 - 1 16:30:0016:30
2021-08-28 16:30:0028/08/214 - 2 16:30:0016:30
2021-08-21 16:30:0021/08/212 - 2 16:30:0016:30